This demonstration page uses our WeatherBlox Daily Observations layout. Learn more.

Left ArrowRight Arrow

Hourly Observations for May 19, 2016

Temp ( °F °C ) Dew Point ( °F °C ) Humidity (%) Winds ( mph kmh ) Pressure ( in mb ) Visibility ( mi km ) Precip ( " mm )
12:53 am 00:53 Clear 50 10 44 6.7 80 80 N N/A 30.17 1022 10 16 N/A
1:53 am 01:53 Clear 46 7.8 43 6.1 89 89 N N/A 30.17 1022 10 16 N/A
2:53 am 02:53 Clear 44 6.7 42 5.6 93 93 N N/A 30.17 1022 10 16 N/A
3:53 am 03:53 Clear 42 5.6 41 5 96 96 N N/A 30.17 1022 10 16 N/A
4:53 am 04:53 Clear 42 5.6 41 5 96 96 N N/A 30.17 1022 7 11 N/A
5:53 am 05:53 Clear 40 4.4 39 3.9 97 97 N N/A 30.17 1022 8 13 N/A
6:53 am 06:53 Sunny 41 5 39 3.9 93 93 N N/A 30.19 1022 10 16 N/A
7:53 am 07:53 Sunny 50 10 42 5.6 74 74 N N/A 30.20 1023 10 16 N/A
8:53 am 08:53 Sunny 55 12.8 42 5.6 62 62 NE 5 7 30.21 1023 10 16 N/A
9:53 am 09:53 Sunny 60 15.6 42 5.6 52 52 ENE 6 9 30.22 1023 10 16 N/A
10:53 am 10:53 Sunny 63 17.2 43 6.1 48 48 ENE 10 17 30.21 1023 10 16 N/A
11:53 am 11:53 Sunny 67 19.4 44 6.7 44 44 NNE 8 13 30.20 1023 10 16 N/A
12:53 pm 12:53 Mostly Sunny 67 19.4 43 6.1 42 42 VRB 5 7 30.20 1023 10 16 N/A
1:53 pm 13:53 Mostly Sunny 69 20.6 44 6.7 41 41 E 12 19 30.18 1022 10 16 N/A
2:53 pm 14:53 Mostly Sunny 69 20.6 43 6.1 39 39 ENE 10 17 30.17 1022 10 16 N/A
3:53 pm 15:53 Mostly Sunny 71 21.7 43 6.1 36 36 ESE 6 9 30.15 1021 10 16 N/A
4:53 pm 16:53 Sunny 71 21.7 40 4.4 32 32 N N/A 30.15 1021 10 16 N/A
5:53 pm 17:53 Sunny 71 21.7 40 4.4 32 32 VRB 5 7 30.15 1021 10 16 N/A
6:53 pm 18:53 Sunny 70 21.1 40 4.4 34 34 ENE 10 17 30.14 1021 10 16 N/A
7:53 pm 19:53 Sunny 67 19.4 42 5.6 41 41 ENE 7 11 30.14 1021 10 16 N/A
8:53 pm 20:53 Clear 57 13.9 47 8.3 69 69 N N/A 30.14 1021 10 16 N/A
9:53 pm 21:53 Clear 54 12.2 46 7.8 75 75 N N/A 30.16 1021 10 16 N/A
10:53 pm 22:53 Clear 51 10.6 46 7.8 83 83 N N/A 30.15 1021 10 16 N/A
11:53 pm 23:53 Clear 50 10 45 7.2 83 83 N N/A 30.16 1021 10 16 N/A

Powered by AerisWeather